QPF
0.02 0.03 0.04 0.03 0.04 0.02 0.01 0.00 0.00 0.00 0.00 0.00 0.00 0.00 0.00 0.00 0.00 0.00 0.00 0.00 0.00 0.00 0.00 0.00 0.00 0.00 0.00 0.00 0.00 0.00 0.00 0.00 0.00 0.00 0.00 0.00 0.00 0.00
0.02 0.02 0.04 0.02 0.02 0.03 0.01 0.01 0.00 0.00 0.00 0.00 0.00 0.00 0.00 0.00 0.00 0.00 0.00 0.00 0.00 0.00 0.00 0.00 0.00 0.00 0.00 0.00 0.00 0.00 0.00 0.00 0.00 0.00 0.00 0.00 0.00 0.00
0.01 0.01 0.01 0.01 0.03 0.02 0.02 0.02 0.00 0.00 0.00 0.00 0.00 0.00 0.00 0.00 0.00 0.00 0.00 0.00 0.00 0.00 0.00 0.00 0.00 0.00 0.00 0.00 0.00 0.00 0.00 0.00 0.00 0.00 0.00 0.00 0.00 0.00
0.00 0.01 0.01 0.02 0.03 0.02 0.02 0.01 0.01 0.01 0.01 0.00 0.00 0.00 0.00 0.00 0.00 0.00 0.00 0.00 0.00 0.00 0.00 0.00 0.00 0.00 0.00 0.00 0.00 0.00 0.00 0.00 0.00 0.00 0.00 0.00 0.00 0.00
0.00 0.01 0.02 0.04 0.03 0.02 0.02 0.02 0.02 0.01 0.01 0.00 0.00 0.00 0.00 0.00 0.00 0.00 0.00 0.00 0.00 0.00 0.00 0.00 0.00 0.00 0.00 0.00 0.00 0.00 0.00 0.00 0.00 0.00 0.00 0.00 0.00 0.00
0.05 0.05 0.03 0.01 0.00 0.01 0.01 0.01 0.01 0.01 0.01 0.00 0.00 0.00 0.00 0.00 0.00 0.00 0.00 0.00 0.00 0.00 0.00 0.00 0.00 0.00 0.00 0.00 0.00 0.00 0.00 0.00 0.00 0.00 0.00 0.00 0.00 0.00
0.02 0.01 0.00 0.00 0.00 0.00 0.00 0.01 0.00 0.00 0.00 0.00 0.00 0.00 0.00 0.00 0.00 0.00 0.00 0.00 0.00 0.00 0.00 0.00 0.00 0.00 0.00 0.00 0.00 0.00 0.00 0.00 0.00 0.00 0.00 0.00 0.00 0.00
0.01 0.01 0.00 0.00 0.00 0.00 0.00 0.00 0.00 0.00 0.00 0.00 0.00 0.00 0.00 0.00 0.00 0.00 0.00 0.00 0.00 0.00 0.00 0.00 0.00 0.00 0.00 0.00 0.00 0.00 0.00 0.00 0.00 0.00 0.00 0.00 0.00 0.00
0.00 0.00 0.00 0.00 0.00 0.00 0.00 0.00 0.00 0.00 0.00 0.00 0.00 0.00 0.00 0.00 0.00 0.00 0.00 0.00 0.00 0.00 0.00 0.00 0.00 0.00 0.00 0.00 0.00 0.00 0.00 0.00 0.00 0.00 0.00 0.00 0.00 0.00
0.00 0.00 0.00 0.00 0.00 0.00 0.00 0.00 0.00 0.00 0.00 0.00 0.00 0.00 0.00 0.00 0.00 0.00 0.00 0.00 0.00 0.00 0.00 0.00 0.00 0.00 0.00 0.00 0.00 0.00 0.00 0.00 0.00 0.00 0.00 0.00 0.00 0.00
0.00 0.00 0.00 0.00 0.00 0.00 0.00 0.00 0.00 0.00 0.00 0.00 0.00 0.00 0.00 0.00 0.00 0.00 0.00 0.00 0.00 0.00 0.00 0.00 0.00 0.00 0.00 0.00 0.00 0.00 0.00 0.00 0.00 0.00 0.00 0.00 0.00 0.00
0.00 0.00 0.00 0.00 0.00 0.00 0.00 0.00 0.00 0.00 0.00 0.00 0.00 0.00 0.00 0.00 0.00 0.00 0.00 0.00 0.00 0.00 0.00 0.00 0.00 0.00 0.00 0.00 0.00 0.00 0.00 0.00 0.00 0.00 0.00 0.00 0.00 0.00
0.00 0.00 0.00 0.00 0.00 0.00 0.00 0.00 0.00 0.00 0.00 0.00 0.00 0.00 0.00 0.01 0.01 0.01 0.00 0.00 0.00 0.00 0.00 0.00 0.00 0.00 0.00 0.00 0.00 0.00 0.00 0.00 0.00 0.00 0.00 0.00 0.00 0.00
0.00 0.00 0.00 0.00 0.00 0.00 0.00 0.00 0.00 0.00 0.00 0.00 0.00 0.00 0.00 0.00 0.00 0.00 0.00 0.00 0.00 0.00 0.00 0.00 0.00 0.00 0.00 0.00 0.00 0.00 0.00 0.00 0.00 0.00 0.00 0.00 0.00 0.00
0.00 0.00 0.00 0.00 0.00 0.00 0.00 0.00 0.00 0.00 0.00 0.00 0.00 0.00 0.00 0.00 0.00 0.00 0.00 0.00 0.00 0.00 0.00 0.00 0.01 0.01 0.01 0.01 0.01 0.00 0.00 0.00 0.00 0.00 0.00 0.00 0.00 0.01
0.00 0.00 0.00 0.00 0.00 0.00 0.00 0.00 0.01 0.00 0.00 0.00 0.00 0.00 0.00 0.00 0.00 0.00 0.00 0.00 0.00 0.00 0.00 0.00 0.00 0.01 0.01 0.02 0.02 0.01 0.00 0.00 0.00 0.00 0.00 0.00 0.00 0.01
0.00 0.00 0.00 0.00 0.00 0.00 0.00 0.00 0.00 0.00 0.00 0.00 0.00 0.00 0.00 0.00 0.00 0.00 0.00 0.00 0.00 0.00 0.00 0.00 0.00 0.00 0.00 0.00 0.00 0.00 0.00 0.00 0.00 0.00 0.00 0.00 0.00 0.00
0.00 0.00 0.00 0.00 0.00 0.00 0.00 0.00 0.00 0.00 0.00 0.00 0.00 0.00 0.00 0.00 0.00 0.00 0.00 0.01 0.01 0.01 0.01 0.00 0.00 0.00 0.00 0.00 0.00 0.00 0.01 0.01 0.00 0.00 0.00 0.01 0.00 0.00
0.00 0.00 0.00 0.00 0.00 0.00 0.00 0.00 0.00 0.00 0.00 0.00 0.00 0.00 0.00 0.00 0.00 0.00 0.01 0.01 0.00 0.00 0.00 0.00 0.00 0.01 0.01 0.01 0.00 0.00 0.00 0.00 0.00 0.00 0.00 0.00 0.00 0.00
0.00 0.00 0.00 0.00 0.00 0.00 0.00 0.00 0.00 0.00 0.00 0.00 0.00 0.00 0.00 0.00 0.00 0.01 0.01 0.01 0.00 0.00 0.00 0.00 0.01 0.01 0.01 0.00 0.00 0.00 0.00 0.00 0.00 0.00 0.00 0.00 0.00 0.00
0.00 0.00 0.00 0.00 0.00 0.00 0.00 0.00 0.00 0.00 0.00 0.00 0.00 0.00 0.00 0.01 0.00 0.00 0.00 0.00 0.01 0.01 0.01 0.01 0.00 0.00 0.00 0.01 0.01 0.00 0.00 0.00 0.00 0.00 0.01 0.01 0.00 0.00
0.00 0.00 0.00 0.00 0.00 0.00 0.00 0.00 0.00 0.00 0.00 0.00 0.00 0.00 0.00 0.00 0.00 0.00 0.01 0.01 0.01 0.01 0.01 0.00 0.00 0.00 0.01 0.01 0.01 0.00 0.00 0.00 0.00 0.00 0.00 0.00 0.00 0.00
0.00 0.00 0.00 0.00 0.00 0.00 0.00 0.00 0.00 0.00 0.00 0.00 0.00 0.00 0.00 0.00 0.00 0.00 0.01 0.01 0.00 0.01 0.00 0.01 0.00 0.00 0.00 0.01 0.00 0.00 0.00 0.00 0.00 0.00 0.00 0.00 0.00 0.00
MSLP
1016.52 1016.74 1017.18 1017.37 1017.49 1017.54 1017.65 1017.93 1018.21 1018.25 1017.96 1017.55 1017.50 1016.94 1017.07 1017.00 1016.88 1016.92 1016.61 1016.50 1016.75 1017.08 1017.51 1017.44 1017.61 1017.74 1018.01 1018.44 1018.55 1019.00 1019.25 1019.43 1019.57 1019.80 1019.97 1020.24 1020.77 1021.15
1016.03 1016.24 1016.51 1016.57 1016.61 1016.79 1016.81 1016.86 1017.03 1016.93 1016.32 1016.33 1015.80 1015.77 1015.76 1015.92 1015.92 1016.14 1016.06 1016.02 1016.16 1015.95 1016.23 1016.41 1016.74 1016.76 1016.78 1016.97 1017.36 1017.51 1017.97 1018.51 1018.75 1018.97 1019.44 1019.77 1020.04 1020.60
1015.27 1015.62 1015.69 1015.69 1015.92 1015.82 1015.77 1015.80 1015.91 1016.02 1015.43 1014.81 1014.96 1014.88 1015.17 1015.15 1015.10 1015.13 1015.43 1015.53 1015.22 1015.41 1015.35 1015.46 1015.82 1015.95 1015.94 1016.27 1016.89 1017.31 1017.58 1018.24 1018.81 1018.89 1019.02 1019.30 1019.53 1019.81
1014.61 1014.92 1014.88 1014.90 1015.05 1015.05 1015.11 1015.21 1015.24 1015.13 1015.04 1014.11 1014.65 1014.54 1014.67 1014.52 1014.63 1014.85 1014.83 1014.75 1014.51 1014.21 1014.37 1014.59 1014.75 1015.13 1015.66 1015.80 1016.43 1017.08 1017.42 1017.95 1018.70 1018.91 1018.98 1019.25 1019.39 1019.56
1013.97 1014.06 1014.07 1014.31 1014.73 1014.74 1014.84 1014.85 1014.47 1014.25 1014.67 1014.53 1014.13 1014.27 1014.48 1014.62 1014.56 1014.47 1014.56 1014.27 1014.13 1014.21 1014.25 1014.32 1014.61 1015.23 1015.47 1015.62 1015.73 1016.60 1017.20 1017.77 1017.93 1018.43 1018.84 1018.91 1019.14 1019.38
1013.60 1014.82 1015.62 1015.94 1016.19 1015.91 1015.73 1015.17 1015.23 1014.77 1014.96 1014.83 1014.49 1014.65 1015.02 1015.36 1015.39 1015.27 1015.06 1014.96 1014.75 1014.35 1014.46 1014.67 1014.84 1015.04 1015.32 1015.69 1015.88 1016.55 1016.74 1017.07 1017.46 1017.84 1018.10 1017.97 1018.27 1018.62
1015.43 1016.07 1016.84 1017.17 1017.30 1017.07 1016.68 1016.33 1016.62 1015.92 1015.99 1016.18 1016.09 1016.21 1016.35 1016.36 1016.51 1016.37 1015.86 1015.72 1015.34 1015.26 1014.93 1014.87 1014.78 1014.82 1015.03 1015.44 1015.62 1015.89 1016.19 1016.41 1016.75 1016.85 1016.81 1017.11 1017.42 1017.64
1016.12 1017.12 1017.66 1017.89 1018.16 1017.53 1017.76 1017.63 1016.73 1017.36 1016.72 1017.18 1017.41 1017.36 1017.57 1017.53 1017.24 1017.04 1016.70 1016.29 1016.10 1015.97 1015.66 1015.43 1015.37 1015.28 1015.43 1015.40 1015.37 1015.44 1015.53 1015.61 1015.71 1015.80 1015.95 1016.23 1016.43 1016.39
1017.30 1017.51 1018.02 1018.33 1018.21 1018.45 1017.98 1018.99 1018.16 1018.68 1018.10 1018.21 1018.16 1018.30 1018.28 1018.34 1017.97 1017.58 1017.37 1017.05 1016.69 1016.42 1016.32 1015.72 1015.50 1015.30 1015.16 1014.91 1014.93 1014.90 1014.80 1014.83 1014.81 1014.80 1015.10 1015.28 1015.29 1015.31
1018.29 1018.64 1018.59 1019.13 1018.65 1019.09 1018.78 1018.96 1019.37 1019.34 1019.12 1019.23 1019.36 1019.41 1019.25 1019.01 1018.76 1018.52 1018.15 1017.61 1017.17 1016.73 1016.53 1015.78 1015.47 1014.98 1014.63 1014.34 1014.07 1013.87 1013.67 1013.74 1013.62 1013.74 1013.99 1014.11 1014.14 1014.26
1019.25 1019.19 1019.61 1019.75 1019.69 1019.58 1019.71 1019.78 1019.57 1019.67 1019.61 1019.57 1019.59 1019.51 1019.36 1019.16 1019.01 1018.77 1018.39 1018.18 1017.60 1017.22 1017.16 1016.80 1016.00 1015.43 1014.88 1014.23 1013.74 1013.38 1013.04 1012.87 1012.86 1012.65 1012.49 1012.77 1012.89 1013.13
1019.26 1019.94 1020.13 1020.31 1020.34 1020.47 1020.53 1020.52 1020.43 1020.43 1020.00 1019.69 1019.54 1019.32 1019.12 1019.03 1019.24 1019.24 1019.17 1019.03 1018.69 1017.73 1017.73 1017.83 1017.18 1016.91 1015.64 1014.51 1014.17 1013.85 1013.58 1013.47 1013.16 1012.78 1012.47 1011.98 1011.92 1012.15
1019.88 1020.37 1020.76 1020.93 1020.94 1021.05 1021.08 1021.04 1021.00 1020.82 1020.55 1020.39 1020.18 1019.88 1019.84 1019.94 1020.05 1019.89 1019.80 1019.85 1019.67 1019.41 1018.89 1018.78 1018.00 1017.57 1017.17 1015.74 1014.88 1014.57 1013.89 1013.13 1012.60 1012.38 1012.10 1011.66 1011.37 1011.26
1020.67 1021.03 1021.23 1021.26 1021.37 1021.45 1021.45 1021.48 1021.43 1021.35 1021.18 1020.93 1020.82 1020.93 1020.94 1020.83 1020.70 1020.52 1020.30 1020.07 1019.92 1019.60 1019.06 1018.75 1018.08 1017.62 1016.73 1015.87 1015.07 1014.15 1013.87 1013.26 1012.68 1011.95 1011.41 1011.31 1010.93 1010.46
1021.06 1021.32 1021.59 1021.74 1021.78 1021.85 1021.95 1022.00 1022.08 1022.16 1022.12 1022.09 1022.09 1022.11 1021.99 1021.64 1021.25 1021.00 1020.78 1020.45 1020.08 1019.67 1019.09 1018.62 1018.04 1017.30 1016.70 1015.49 1014.56 1014.09 1013.56 1013.01 1012.49 1011.88 1011.45 1011.02 1010.54 1010.04
1021.43 1021.71 1022.00 1022.19 1022.40 1022.58 1022.53 1022.70 1022.81 1022.90 1023.09 1023.25 1023.17 1022.94 1022.61 1022.23 1022.02 1021.78 1021.42 1020.93 1020.43 1019.75 1019.16 1018.56 1018.02 1017.42 1016.78 1016.11 1015.30 1014.37 1013.85 1013.18 1012.47 1011.84 1011.18 1010.66 1009.98 1009.38
1022.28 1022.60 1022.98 1023.34 1023.62 1023.71 1023.71 1023.75 1023.80 1023.92 1024.13 1024.10 1023.93 1023.74 1023.46 1023.13 1022.80 1022.45 1021.99 1021.39 1020.87 1020.01 1019.17 1018.59 1018.14 1017.59 1016.90 1016.10 1015.13 1014.39 1013.70 1013.01 1012.56 1012.18 1011.62 1010.38 1009.36 1008.87
1023.40 1023.89 1024.34 1024.59 1024.72 1024.72 1024.80 1024.93 1025.00 1025.11 1025.07 1024.89 1024.81 1024.63 1024.32 1023.94 1023.46 1022.96 1022.47 1021.94 1021.23 1020.49 1019.76 1019.04 1018.27 1017.35 1016.45 1015.52 1015.07 1014.59 1014.23 1013.63 1012.88 1012.10 1011.42 1010.76 1009.57 1008.79
1024.55 1025.02 1025.41 1025.61 1025.75 1025.75 1025.90 1026.00 1026.05 1026.07 1025.98 1025.79 1025.59 1025.33 1024.97 1024.49 1024.00 1023.35 1022.75 1022.20 1021.55 1020.89 1020.18 1019.36 1018.55 1017.79 1016.74 1015.75 1015.26 1015.19 1014.30 1013.21 1012.48 1011.81 1011.17 1010.38 1009.48 1008.63
1025.47 1025.96 1026.32 1026.53 1026.63 1026.65 1026.77 1026.84 1026.91 1026.79 1026.64 1026.41 1026.14 1025.83 1025.45 1024.97 1024.34 1023.77 1023.25 1022.68 1021.91 1021.02 1020.16 1019.36 1018.74 1018.13 1017.52 1016.58 1015.15 1014.43 1013.96 1012.93 1012.17 1011.22 1010.29 1009.42 1008.72 1007.92
1026.57 1026.86 1027.11 1027.28 1027.47 1027.50 1027.58 1027.57 1027.45 1027.30 1027.06 1026.83 1026.52 1026.22 1025.85 1025.40 1024.93 1024.30 1023.54 1022.91 1022.18 1021.19 1020.34 1019.52 1018.81 1018.09 1017.21 1016.24 1015.14 1013.96 1013.09 1012.37 1011.45 1010.61 1009.76 1008.99 1008.18 1007.21
1027.63 1027.83 1027.96 1028.09 1028.20 1028.21 1028.11 1027.99 1027.81 1027.63 1027.35 1027.07 1026.80 1026.54 1026.29 1025.97 1025.36 1024.61 1023.86 1023.05 1022.29 1021.51 1020.55 1019.56 1018.63 1017.85 1017.12 1016.21 1015.00 1013.85 1012.54 1011.48 1010.61 1009.58 1008.68 1008.08 1007.82 1007.03
1028.54 1028.76 1028.89 1028.82 1028.73 1028.59 1028.56 1028.50 1028.33 1028.03 1027.74 1027.42 1027.15 1026.89 1026.64 1026.23 1025.52 1024.77 1024.01 1023.29 1022.48 1021.57 1020.68 1019.59 1018.75 1017.94 1017.03 1016.07 1014.89 1013.55 1012.30 1011.08 1010.04 1008.69 1007.37 1006.59 1006.02 1005.91
Thickness
5583 5581 5579 5578 5577 5577 5577 5574 5569 5567 5567 5569 5566 5569 5567 5566 5563 5557 5556 5555 5552 5548 5543 5539 5534 5530 5525 5518 5512 5505 5500 5496 5492 5487 5483 5478 5471 5466
5581 5581 5579 5579 5578 5576 5576 5573 5570 5568 5569 5571 5573 5569 5562 5559 5558 5554 5550 5547 5544 5544 5538 5533 5527 5524 5521 5515 5508 5502 5494 5485 5479 5475 5467 5463 5458 5450
5584 5580 5580 5579 5576 5577 5575 5572 5570 5566 5569 5575 5569 5566 5559 5555 5552 5548 5540 5536 5536 5533 5530 5526 5519 5515 5512 5505 5497 5486 5480 5469 5461 5457 5453 5447 5442 5436
5583 5578 5579 5578 5574 5574 5572 5569 5566 5565 5564 5568 5560 5558 5550 5547 5543 5536 5530 5527 5526 5526 5523 5517 5512 5506 5498 5493 5481 5471 5464 5455 5446 5441 5436 5432 5426 5419
5578 5578 5577 5575 5573 5569 5565 5563 5563 5560 5552 5549 5551 5543 5536 5529 5526 5521 5516 5515 5513 5511 5508 5504 5498 5489 5481 5475 5470 5458 5447 5440 5435 5426 5420 5415 5408 5401
5576 5563 5554 5550 5547 5547 5547 5549 5545 5545 5538 5535 5534 5527 5515 5509 5504 5500 5497 5493 5490 5489 5485 5481 5476 5471 5463 5455 5450 5440 5432 5425 5417 5410 5405 5401 5394 5386
5551 5544 5535 5531 5527 5526 5528 5528 5519 5521 5514 5506 5501 5495 5490 5486 5479 5475 5474 5468 5467 5462 5460 5457 5455 5450 5444 5436 5430 5423 5415 5408 5399 5394 5391 5384 5377 5371
5536 5525 5518 5514 5508 5510 5505 5501 5503 5496 5492 5482 5475 5470 5462 5456 5453 5449 5446 5444 5443 5437 5433 5430 5426 5424 5419 5414 5409 5403 5397 5391 5385 5378 5371 5364 5358 5355
5515 5511 5504 5499 5496 5490 5489 5477 5478 5469 5467 5460 5454 5445 5438 5431 5429 5426 5420 5417 5415 5410 5404 5408 5402 5401 5397 5395 5389 5383 5378 5371 5365 5359 5350 5344 5339 5335
5496 5490 5488 5479 5479 5472 5469 5462 5452 5445 5441 5434 5426 5418 5412 5407 5402 5398 5395 5393 5389 5385 5377 5384 5377 5379 5376 5373 5368 5363 5356 5350 5345 5338 5330 5324 5319 5313
5477 5475 5467 5461 5457 5453 5446 5439 5434 5426 5419 5412 5404 5397 5390 5385 5379 5375 5371 5364 5363 5358 5346 5344 5345 5344 5345 5346 5342 5335 5329 5324 5318 5314 5310 5303 5297 5289
5465 5455 5449 5442 5436 5429 5422 5415 5409 5401 5398 5392 5385 5379 5373 5366 5357 5350 5342 5334 5328 5330 5315 5306 5302 5292 5302 5312 5306 5297 5291 5285 5280 5279 5276 5276 5272 5265
5448 5439 5430 5422 5415 5407 5400 5394 5387 5381 5376 5368 5362 5355 5348 5338 5328 5320 5311 5301 5292 5282 5275 5261 5262 5253 5237 5250 5267 5254 5246 5247 5243 5242 5243 5243 5243 5243
5428 5418 5410 5404 5396 5389 5381 5373 5367 5360 5352 5345 5337 5327 5317 5308 5298 5289 5280 5270 5258 5247 5240 5225 5216 5206 5201 5201 5201 5219 5208 5207 5203 5208 5210 5211 5215 5220
5410 5401 5391 5383 5377 5369 5361 5353 5344 5335 5327 5316 5306 5296 5285 5275 5266 5256 5245 5232 5223 5210 5198 5186 5173 5166 5157 5157 5160 5166 5167 5172 5169 5170 5174 5180 5186 5195
5391 5382 5371 5361 5353 5345 5337 5327 5319 5309 5298 5285 5275 5264 5254 5242 5228 5214 5203 5191 5180 5171 5156 5143 5134 5124 5120 5116 5113 5119 5125 5126 5132 5135 5142 5153 5165 5177
5365 5357 5347 5335 5325 5317 5308 5299 5289 5278 5265 5253 5241 5229 5216 5203 5187 5172 5157 5146 5133 5126 5122 5113 5102 5093 5088 5084 5084 5086 5089 5093 5095 5104 5112 5129 5147 5160
5340 5330 5318 5308 5299 5291 5280 5269 5258 5244 5232 5218 5203 5188 5173 5159 5145 5130 5117 5106 5098 5091 5083 5077 5073 5072 5070 5068 5054 5055 5057 5062 5071 5080 5090 5102 5123 5139
5314 5304 5293 5282 5272 5264 5251 5238 5224 5210 5196 5180 5164 5148 5132 5118 5105 5095 5086 5077 5070 5063 5056 5051 5047 5043 5044 5044 5040 5026 5037 5047 5056 5065 5075 5089 5107 5125
5292 5280 5268 5257 5245 5233 5220 5206 5190 5175 5159 5143 5127 5111 5097 5086 5076 5067 5059 5052 5047 5044 5041 5035 5029 5024 5020 5021 5028 5027 5027 5041 5048 5060 5074 5090 5107 5123
5266 5255 5242 5229 5215 5202 5187 5172 5157 5141 5124 5108 5094 5081 5069 5060 5050 5043 5039 5033 5030 5030 5026 5022 5019 5015 5016 5018 5021 5027 5033 5040 5050 5062 5076 5091 5108 5127
5239 5226 5213 5200 5186 5171 5156 5140 5124 5108 5094 5081 5069 5058 5047 5036 5029 5025 5022 5021 5020 5017 5016 5015 5014 5013 5013 5015 5021 5028 5038 5047 5057 5070 5086 5100 5114 5130
5209 5196 5183 5170 5156 5141 5124 5108 5094 5081 5070 5059 5048 5038 5027 5018 5013 5011 5011 5011 5011 5010 5010 5011 5010 5011 5014 5018 5024 5033 5043 5055 5067 5083 5105 5120 5133 5143